Scottsdale, AZ

7:34 AM MST on August 23, 2017 (GMT -0700)
Scottsdale

Weather History for KSDL - August, 2013

Change the Weather History Date:

Saturday, August 10, 2013

  Actual Average Record
Temperature  
Mean Temperature 90 °F -  
Max Temperature 100 °F 100 °F 113 °F (2003)
Min Temperature 80 °F 80 °F 77 °F (2005)
Cooling Degree Days 25    
Growing Degree Days 40 (Base 50)    
Moisture  
Dew Point 36 °F    
Average Humidity 15    
Maximum Humidity 26    
Minimum Humidity 9    
Precipitation  
Precipitation 0.00 in - - ()
Sea Level Pressure  
Sea Level Pressure 29.84 in    
Wind  
Wind Speed 3 mph (SSE)    
Max Wind Speed 8 mph    
Max Gust Speed -    
Visibility 10 miles    
Events      
Averages and records for this station are not official NWS values.
T = Trace of Precipitation, MM = Missing Value Source: NWS Daily Summary

Daily Weather History Graph

Daily Weather History Graph

Search for Another Location

Airport or City:

Trip Planner

Search our weather history database for the weather conditions in past years. The results will help you decide how hot, cold, wet, or windy it might be!

Date:

Astronomy

Aug. 10, 2013 Rise Set
Actual Time 5:46 AM MST 7:18 PM MST
Civil Twilight 5:19 AM MST 7:45 PM MST
Nautical Twilight 4:47 AM MST 8:17 PM MST
Astronomical Twilight 4:14 AM MST 8:50 PM MST
Moon 9:22 AM MST (8/10) 9:18 PM MST (8/10)
Length of Visible Light 14h 25m
Length of Day
13h 32m
Waxing Crescent, 15% of the Moon is Illuminated
Aug 10
Waxing Crescent
Aug 14
First Quarter
Aug 20
Full
Aug 28
Last Quarter
Sep 5
New

Hourly Weather History & Observations

Time (MST) Temp. Dew Point Humidity Pressure Visibility Wind Dir Wind Speed Gust Speed Precip Events Conditions
12:53 AM 89.1 °F 39.0 °F 17% 29.81 in 10.0 mi NNE 3.5 mph - N/A   Clear
1:53 AM 88.0 °F 37.9 °F 17% 29.82 in 10.0 mi Calm Calm - N/A   Clear
2:53 AM 86.0 °F 37.0 °F 18% 29.83 in 10.0 mi NNE 4.6 mph - N/A   Clear
3:53 AM 84.9 °F 37.0 °F 18% 29.84 in 10.0 mi Calm Calm - N/A   Clear
4:53 AM 82.0 °F 42.1 °F 24% 29.85 in 10.0 mi Calm Calm - N/A   Clear
5:53 AM 80.1 °F 42.1 °F 26% 29.87 in 10.0 mi Calm Calm - N/A   Clear
6:53 AM 84.9 °F 39.9 °F 20% 29.88 in 10.0 mi SSE 5.8 mph - N/A   Clear
7:53 AM 87.1 °F 39.9 °F 19% 29.90 in 10.0 mi SSE 5.8 mph - N/A   Clear
8:53 AM 90.0 °F 37.9 °F 16% 29.91 in 10.0 mi SSE 4.6 mph - N/A   Clear
9:53 AM 93.0 °F 36.0 °F 13% 29.91 in 10.0 mi South 5.8 mph - N/A   Clear
10:53 AM 95.0 °F 37.9 °F 14% 29.90 in 10.0 mi South 4.6 mph - N/A   Clear
11:53 AM 97.0 °F 35.1 °F 11% 29.89 in 10.0 mi Variable 6.9 mph - N/A   Clear
12:53 PM 98.1 °F 32.0 °F 10% 29.87 in 10.0 mi Variable 4.6 mph - N/A   Clear
1:53 PM 99.0 °F 33.1 °F 10% 29.85 in 10.0 mi South 8.1 mph - N/A   Clear
2:53 PM 100.0 °F 33.1 °F 10% 29.83 in 10.0 mi Calm Calm - N/A   Clear
3:53 PM 100.0 °F 34.0 °F 10% 29.81 in 10.0 mi South 6.9 mph - N/A   Clear
4:53 PM 100.9 °F 34.0 °F 10% 29.78 in 10.0 mi East 3.5 mph - N/A   Clear
5:53 PM 100.9 °F 33.1 °F 9% 29.77 in 10.0 mi South 4.6 mph - N/A   Clear
6:53 PM 100.0 °F 33.1 °F 10% 29.76 in 10.0 mi Calm Calm - N/A   Clear
7:53 PM 96.1 °F 36.0 °F 12% 29.77 in 10.0 mi Calm Calm - N/A   Clear
8:53 PM 93.9 °F 37.9 °F 14% 29.80 in 10.0 mi Calm Calm - N/A   Clear
9:53 PM 93.0 °F 34.0 °F 12% 29.82 in 10.0 mi West 4.6 mph - N/A   Clear
10:53 PM 91.0 °F 30.9 °F 12% 29.84 in 10.0 mi Calm Calm - N/A   Clear
11:53 PM 88.0 °F 36.0 °F 16% 29.84 in 10.0 mi NNE 3.5 mph - N/A   Clear